When you browse on this site, cookies collect data to enhance your experience and personalize the content and advertising you see.
Visit our Privacy Policy to learn more. By continuing to use the site, you agree to this use of cookies and data.
EN

Hourly Weather Fot

Today, 22 September, Tuesday

Time Temperature Precipitation Wind Pressure Humidity
00:00 +18°C° 0 mm 1 mps 749 mmHg 50%
01:00 +16°C° 0 mm 1 mps 749 mmHg 52%
02:00 +16°C° 0 mm 1 mps 749 mmHg 54%
03:00 +16°C° 0 mm 1 mps 749 mmHg 55%
04:00 +15°C° 0 mm 1 mps 748 mmHg 56%
05:00 +16°C° 0 mm 1 mps 748 mmHg 55%
06:00 +16°C° 0 mm 1 mps 749 mmHg 55%
07:00 +17°C° 0 mm 2 mps 749 mmHg 52%
08:00 +19°C° 0 mm 2 mps 749 mmHg 47%
09:00 +22°C° 0 mm 3 mps 749 mmHg 43%
10:00 +25°C° 0 mm 3 mps 748 mmHg 39%
11:00 +26°C° 0 mm 4 mps 748 mmHg 36%
12:00 +27°C° 0 mm 4 mps 748 mmHg 33%
13:00 +28°C° 0 mm 4 mps 747 mmHg 30%
14:00 +28°C° 0 mm 4 mps 747 mmHg 30%
15:00 +28°C° 0 mm 4 mps 746 mmHg 30%
16:00 +28°C° 0 mm 4 mps 746 mmHg 30%
17:00 +26°C° 0 mm 4 mps 746 mmHg 34%
18:00 +24°C° 0 mm 3 mps 746 mmHg 38%
19:00 +21°C° 0 mm 3 mps 746 mmHg 42%
20:00 +21°C° 0 mm 3 mps 745 mmHg 44%
21:00 +20°C° 0 mm 3 mps 745 mmHg 46%
22:00 +19°C° 0 mm 2 mps 745 mmHg 49%
23:00 +19°C° 0 mm 2 mps 745 mmHg 50%

Tomorrow, 23 September, Wednesday

Time Temperature Precipitation Wind Pressure Humidity
00:00 +19°C° 0 mm 2 mps 745 mmHg 51%
01:00 +18°C° 0 mm 2 mps 744 mmHg 53%
02:00 +18°C° 0 mm 2 mps 744 mmHg 53%
03:00 +18°C° 0 mm 2 mps 744 mmHg 54%
04:00 +18°C° 0 mm 2 mps 744 mmHg 55%
05:00 +18°C° 0 mm 2 mps 744 mmHg 55%
06:00 +18°C° 0 mm 2 mps 744 mmHg 55%
07:00 +18°C° 0 mm 2 mps 744 mmHg 54%
08:00 +19°C° 0 mm 2 mps 744 mmHg 50%
09:00 +21°C° 0 mm 2 mps 744 mmHg 45%
10:00 +23°C° 0 mm 2 mps 744 mmHg 40%
11:00 +24°C° 0 mm 2 mps 743 mmHg 38%
12:00 +26°C° 0 mm 2 mps 743 mmHg 36%
13:00 +27°C° 0 mm 2 mps 743 mmHg 34%
14:00 +27°C° 0.2 mm 2 mps 742 mmHg 39%
15:00 +26°C° 0.2 mm 1 mps 742 mmHg 43%
16:00 +26°C° 0.2 mm 1 mps 742 mmHg 47%
17:00 +24°C° 0.6 mm 1 mps 742 mmHg 52%
18:00 +23°C° 0.6 mm 1 mps 742 mmHg 58%
19:00 +22°C° 0.6 mm 1 mps 742 mmHg 63%
20:00 +21°C° 0.9 mm 1 mps 742 mmHg 67%
21:00 +20°C° 0.9 mm 1 mps 742 mmHg 71%
22:00 +20°C° 0.9 mm 1 mps 742 mmHg 75%
23:00 +19°C° 0.1 mm 1 mps 742 mmHg 77%

Day after tomorrow, 24 September, Thursday

Time Temperature Precipitation Wind Pressure Humidity
00:00 +19°C° 0.1 mm 1 mps 742 mmHg 79%
01:00 +19°C° 0.1 mm 1 mps 742 mmHg 81%
02:00 +18°C° 0 mm 1 mps 742 mmHg 83%
03:00 +18°C° 0 mm 1 mps 742 mmHg 84%
04:00 +18°C° 0 mm 1 mps 742 mmHg 86%
05:00 +18°C° 0 mm 1 mps 742 mmHg 85%
06:00 +18°C° 0 mm 1 mps 743 mmHg 83%
07:00 +19°C° 0 mm 1 mps 743 mmHg 82%
08:00 +20°C° 0 mm 1 mps 743 mmHg 75%
09:00 +22°C° 0 mm 1 mps 743 mmHg 68%
10:00 +24°C° 0 mm 1 mps 743 mmHg 61%
11:00 +25°C° 0 mm 1 mps 743 mmHg 57%
12:00 +26°C° 0 mm 1 mps 743 mmHg 53%
13:00 +27°C° 0 mm 1 mps 743 mmHg 49%
14:00 +26°C° 0 mm 1 mps 743 mmHg 49%
15:00 +26°C° 0 mm 1 mps 742 mmHg 49%
16:00 +26°C° 0 mm 1 mps 742 mmHg 49%
17:00 +25°C° 0 mm 1 mps 742 mmHg 53%
18:00 +23°C° 0 mm 1 mps 742 mmHg 58%
19:00 +20°C° 0 mm 0 mps 742 mmHg 62%
20:00 +20°C° 0 mm 0 mps 742 mmHg 64%
21:00 +21°C° 0 mm 1 mps 742 mmHg 65%
22:00 +21°C° 0 mm 1 mps 742 mmHg 66%
23:00 +21°C° 0 mm 1 mps 742 mmHg 67%

25 September, Friday

Time Temperature Precipitation Wind Pressure Humidity
00:00 +21°C° 0 mm 1 mps 741 mmHg 68%
01:00 +19°C° 0 mm 2 mps 741 mmHg 70%
02:00 +19°C° 0 mm 2 mps 740 mmHg 71%
03:00 +19°C° 0 mm 2 mps 740 mmHg 72%
04:00 +18°C° 0 mm 2 mps 739 mmHg 74%
05:00 +19°C° 0 mm 2 mps 739 mmHg 72%
06:00 +19°C° 0 mm 2 mps 739 mmHg 70%
07:00 +19°C° 0 mm 3 mps 738 mmHg 68%
08:00 +21°C° 0 mm 3 mps 738 mmHg 63%
09:00 +22°C° 0 mm 4 mps 738 mmHg 58%
10:00 +23°C° 0 mm 4 mps 737 mmHg 53%
11:00 +22°C° 0.3 mm 4 mps 737 mmHg 57%
12:00 +21°C° 0.3 mm 4 mps 736 mmHg 60%
13:00 +21°C° 0.3 mm 3 mps 735 mmHg 64%
14:00 +21°C° 0.6 mm 3 mps 735 mmHg 66%
15:00 +21°C° 0.6 mm 4 mps 734 mmHg 68%
16:00 +21°C° 0.6 mm 4 mps 734 mmHg 71%
17:00 +20°C° 0.8 mm 3 mps 733 mmHg 74%
18:00 +19°C° 0.8 mm 3 mps 733 mmHg 76%
19:00 +19°C° 0.8 mm 2 mps 733 mmHg 79%
20:00 +19°C° 1.4 mm 3 mps 733 mmHg 82%
21:00 +18°C° 1.4 mm 3 mps 732 mmHg 86%
22:00 +18°C° 1.4 mm 3 mps 732 mmHg 89%
23:00 +18°C° 1.6 mm 3 mps 731 mmHg 90%

26 September, Saturday

Time Temperature Precipitation Wind Pressure Humidity
00:00 +18°C° 1.6 mm 3 mps 731 mmHg 91%
01:00 +18°C° 1.6 mm 3 mps 730 mmHg 92%
02:00 +18°C° 0.9 mm 4 mps 730 mmHg 91%
03:00 +17°C° 0.9 mm 5 mps 729 mmHg 91%
04:00 +17°C° 0.9 mm 5 mps 729 mmHg 90%
05:00 +16°C° 1.2 mm 5 mps 730 mmHg 89%
06:00 +15°C° 1.2 mm 5 mps 730 mmHg 88%
07:00 +14°C° 1.2 mm 4 mps 730 mmHg 87%
08:00 +14°C° 0 mm 5 mps 731 mmHg 83%
09:00 +13°C° 0 mm 5 mps 731 mmHg 79%
10:00 +13°C° 0 mm 6 mps 732 mmHg 76%
11:00 +13°C° 0 mm 6 mps 732 mmHg 72%
12:00 +14°C° 0 mm 6 mps 732 mmHg 69%
13:00 +14°C° 0 mm 5 mps 732 mmHg 65%
14:00 +14°C° 0 mm 6 mps 732 mmHg 66%
15:00 +12°C° 0 mm 7 mps 732 mmHg 67%
16:00 +11°C° 0 mm 7 mps 732 mmHg 68%
17:00 +10°C° 0.6 mm 7 mps 732 mmHg 72%
18:00 +9°C° 0.6 mm 8 mps 732 mmHg 76%
19:00 +7°C° 0.6 mm 8 mps 732 mmHg 80%
20:00 +7°C° 1.2 mm 8 mps 731 mmHg 80%
21:00 +7°C° 1.2 mm 9 mps 731 mmHg 80%
22:00 +7°C° 1.2 mm 9 mps 730 mmHg 80%
23:00 +7°C° 1.5 mm 10 mps 730 mmHg 82%

27 September, Sunday

Time Temperature Precipitation Wind Pressure Humidity
00:00 +7°C° 1.5 mm 10 mps 730 mmHg 83%
01:00 +7°C° 1.5 mm 10 mps 730 mmHg 84%
02:00 +7°C° 3 mm 9 mps 730 mmHg 85%
03:00 +7°C° 3 mm 9 mps 731 mmHg 86%
04:00 +7°C° 3 mm 8 mps 731 mmHg 87%
05:00 +7°C° 1.8 mm 9 mps 731 mmHg 87%
06:00 +8°C° 1.8 mm 9 mps 731 mmHg 86%
07:00 +8°C° 1.8 mm 10 mps 731 mmHg 85%
08:00 +8°C° 1.4 mm 10 mps 732 mmHg 85%
09:00 +7°C° 1.4 mm 10 mps 732 mmHg 84%
10:00 +7°C° 1.4 mm 10 mps 733 mmHg 83%
11:00 +7°C° 1.3 mm 10 mps 733 mmHg 83%
12:00 +7°C° 1.3 mm 9 mps 734 mmHg 83%
13:00 +7°C° 1.3 mm 8 mps 735 mmHg 83%
14:00 +7°C° 1.4 mm 8 mps 735 mmHg 83%
15:00 +8°C° 1.4 mm 7 mps 735 mmHg 83%
16:00 +8°C° 1.4 mm 6 mps 736 mmHg 83%
17:00 +8°C° 0.8 mm 6 mps 736 mmHg 83%
18:00 +8°C° 0.8 mm 6 mps 737 mmHg 82%
19:00 +9°C° 0.8 mm 6 mps 737 mmHg 82%
20:00 +8°C° 0.3 mm 6 mps 737 mmHg 81%
21:00 +8°C° 0.3 mm 5 mps 738 mmHg 81%
22:00 +8°C° 0.3 mm 4 mps 738 mmHg 80%
23:00 +8°C° 0.4 mm 5 mps 738 mmHg 80%
Show more